{"data":{"norad_id":62014,"epoch":"2026-09-21T20:38:03.347808Z","epoch_age_seconds":68046,"freshness":"FRESH","line1":"1 62014U 24213G   26264.85976097  .00108253  00000+0  88444-3 0  9995","line2":"2 62014  53.1574 154.3680 0001916 146.4959 213.6180 15.69772844105721","mean_motion":15.69772844,"eccentricity":0.0001916,"inclination_deg":53.1574,"raan_deg":154.368,"arg_perigee_deg":146.4959,"mean_anomaly_deg":213.618,"bstar":0.00088444,"rev_number":10572,"period_min":91.733017646724,"perigee_km":358.25598070754,"apogee_km":360.83786118605,"semimajor_km":6737.6839209468,"source":"CELESTRAK","updated_at":"2026-09-22T09:00:49.483269Z"}}